{"data":{"norad_id":66680,"intl_designator":"2025-276Q","name":"OTTER","alt_names":[],"object_type":"PAYLOAD","status":"ACTIVE","operator":null,"country":"GER","launch_date":"2025-11-28","launch_site_code":"AFWTR","launch_vehicle":null,"mission":null,"orbit_class":"UNKNOWN","rcs_meters":null,"size_class":null,"mass_kg":null,"dimensions":null,"purposes":[],"wikipedia_slug":null,"has_3d_model":false,"image_url":null,"decayed_at":null,"tle_current":{"epoch":"2026-05-25T03:58:43.539744Z","epoch_age_seconds":54616,"freshness":"FRESH","line1":"1 66680U 25276Q   26145.16578171  .00005538  00000+0  26839-3 0  9993","line2":"2 66680  97.4209 218.9388 0007564  83.3232 276.8863 15.18909288 26910","mean_motion":15.18909288,"eccentricity":0.0007564,"inclination_deg":97.4209,"raan_deg":218.9388,"arg_perigee_deg":83.3232,"mean_anomaly_deg":276.8863,"bstar":0.00026839,"rev_number":2691,"period_min":94.804871586248,"perigee_km":503.92622524926,"apogee_km":514.34529147811,"semimajor_km":6887.2727583637,"source":"CELESTRAK","updated_at":"2026-05-25T13:38:06.409730Z"}}}